Time,TemperatureF,DewpointF,PressureIn,WindDirection,WindDirectionDegrees,WindSpeedMPH,WindSpeedGustMPH,Humidity,HourlyPrecipIn,Conditions,Clouds,dailyrainin,SoftwareType,DateUTC
2013-05-31 00:00:00,76.8,61.0,29.85,West,277,3.6,3.6,56,0.00,,,-99.99,wx200d/1.3,2013-05-31 04:00:00,
2013-05-31 00:01:00,76.8,61.0,29.85,SW,218,3.1,0.0,56,0.00,,,-99.99,wx200d/1.3,2013-05-31 04:01:00,
2013-05-31 00:02:00,76.6,61.0,29.85,West,262,2.7,4.9,57,0.00,,,-99.99,wx200d/1.3,2013-05-31 04:02:00,
2013-05-31 00:03:00,76.6,61.0,29.85,West,268,3.6,4.0,57,0.00,,,-99.99,wx200d/1.3,2013-05-31 04:03:00,
2013-05-31 00:05:00,76.8,61.0,29.85,West,277,4.5,4.5,58,0.00,,,-99.99,wx200d/1.3,2013-05-31 04:05:00,
2013-05-31 00:09:00,76.8,63.0,29.85,West,269,3.6,3.6,59,0.00,,,-99.99,wx200d/1.3,2013-05-31 04:09:00,
2013-05-31 00:14:00,76.6,63.0,29.85,WSW,239,0.0,2.7,60,0.00,,,-99.99,wx200d/1.3,2013-05-31 04:14:00,
2013-05-31 00:19:00,76.5,63.0,29.85,WSW,240,2.7,2.7,60,0.00,,,-99.99,wx200d/1.3,2013-05-31 04:19:00,
2013-05-31 00:24:00,76.5,63.0,29.85,West,267,2.7,3.6,61,0.00,,,-99.99,wx200d/1.3,2013-05-31 04:24:00,
2013-05-31 00:29:00,76.3,63.0,29.85,West,268,4.0,4.0,62,0.00,,,-99.99,wx200d/1.3,2013-05-31 04:29:00,
2013-05-31 00:34:00,76.3,63.0,29.85,West,261,3.6,3.6,62,0.00,,,-99.99,wx200d/1.3,2013-05-31 04:34:00,
2013-05-31 00:39:00,75.9,63.0,29.85,West,262,3.1,0.0,63,0.00,,,-99.99,wx200d/1.3,2013-05-31 04:39:00,
2013-05-31 00:44:00,75.7,63.0,29.85,West,269,3.6,3.6,63,0.00,,,-99.99,wx200d/1.3,2013-05-31 04:44:00,
2013-05-31 00:49:00,75.6,63.0,29.85,West,261,3.1,3.6,64,0.00,,,-99.99,wx200d/1.3,2013-05-31 04:49:00,
2013-05-31 00:54:00,75.4,64.0,29.85,WNW,282,4.9,4.9,67,0.00,,,-99.99,wx200d/1.3,2013-05-31 04:54:00,
2013-05-31 00:59:00,75.0,64.0,29.85,WNW,294,5.4,6.9,69,0.00,,,-99.99,wx200d/1.3,2013-05-31 04:59:00,
2013-05-31 01:04:00,74.8,64.0,29.85,WSW,258,5.4,5.8,71,0.00,,,-99.99,wx200d/1.3,2013-05-31 05:04:00,
2013-05-31 01:09:00,74.7,66.0,29.85,WNW,295,5.4,5.4,72,0.00,,,-99.99,wx200d/1.3,2013-05-31 05:09:00,
2013-05-31 01:14:00,74.5,66.0,29.85,West,262,5.4,5.8,72,0.00,,,-99.99,wx200d/1.3,2013-05-31 05:14:00,
2013-05-31 01:19:00,74.5,66.0,29.85,West,264,4.5,5.4,73,0.00,,,-99.99,wx200d/1.3,2013-05-31 05:19:00,
2013-05-31 01:24:00,74.1,64.0,29.88,WNW,285,5.4,5.4,74,0.00,,,-99.99,wx200d/1.3,2013-05-31 05:24:00,
2013-05-31 01:29:00,74.1,64.0,29.88,WSW,255,4.5,6.7,74,0.00,,,-99.99,wx200d/1.3,2013-05-31 05:29:00,
2013-05-31 01:34:00,74.1,64.0,29.88,West,259,4.5,4.5,74,0.00,,,-99.99,wx200d/1.3,2013-05-31 05:34:00,
2013-05-31 01:39:00,74.1,64.0,29.88,WSW,253,4.0,4.0,74,0.00,,,-99.99,wx200d/1.3,2013-05-31 05:39:00,
2013-05-31 01:44:00,73.9,64.0,29.88,West,276,3.6,3.6,75,0.00,,,-99.99,wx200d/1.3,2013-05-31 05:44:00,
2013-05-31 01:49:00,73.8,64.0,29.88,West,273,4.0,4.0,74,0.00,,,-99.99,wx200d/1.3,2013-05-31 05:49:00,
2013-05-31 01:54:00,73.8,64.0,29.88,West,281,4.9,4.9,75,0.00,,,-99.99,wx200d/1.3,2013-05-31 05:54:00,
2013-05-31 01:59:00,73.6,66.0,29.88,West,263,4.5,5.8,76,0.00,,,-99.99,wx200d/1.3,2013-05-31 05:59:00,
2013-05-31 02:04:00,73.6,66.0,29.88,West,275,4.0,4.5,76,0.00,,,-99.99,wx200d/1.3,2013-05-31 06:04:00,
2013-05-31 02:09:00,73.4,66.0,29.88,WSW,258,4.0,4.0,76,0.00,,,-99.99,wx200d/1.3,2013-05-31 06:09:00,
2013-05-31 02:14:00,73.4,66.0,29.88,West,273,3.6,3.6,77,0.00,,,-99.99,wx200d/1.3,2013-05-31 06:14:00,
2013-05-31 02:19:00,73.2,66.0,29.88,West,276,4.0,4.5,76,0.00,,,-99.99,wx200d/1.3,2013-05-31 06:19:00,
2013-05-31 02:24:00,73.2,66.0,29.88,WNW,289,4.5,4.9,76,0.00,,,-99.99,wx200d/1.3,2013-05-31 06:24:00,
2013-05-31 02:29:00,73.2,66.0,29.88,WSW,251,4.0,4.0,76,0.00,,,-99.99,wx200d/1.3,2013-05-31 06:29:00,
2013-05-31 02:34:00,73.2,64.0,29.88,West,277,4.5,4.5,75,0.00,,,-99.99,wx200d/1.3,2013-05-31 06:34:00,
2013-05-31 02:39:00,73.0,64.0,29.88,West,274,3.6,5.4,75,0.00,,,-99.99,wx200d/1.3,2013-05-31 06:39:00,
2013-05-31 02:44:00,73.0,64.0,29.88,West,270,3.1,4.0,75,0.00,,,-99.99,wx200d/1.3,2013-05-31 06:44:00,
2013-05-31 02:49:00,73.0,64.0,29.88,WNW,287,4.0,4.0,75,0.00,,,-99.99,wx200d/1.3,2013-05-31 06:49:00,
2013-05-31 02:54:00,72.9,64.0,29.88,WNW,284,4.5,4.5,75,0.00,,,-99.99,wx200d/1.3,2013-05-31 06:54:00,
2013-05-31 02:59:00,72.9,64.0,29.88,WSW,251,4.5,4.5,74,0.00,,,-99.99,wx200d/1.3,2013-05-31 06:59:00,
2013-05-31 03:04:00,72.7,64.0,29.88,West,271,4.5,0.0,75,0.00,,,-99.99,wx200d/1.3,2013-05-31 07:04:00,
2013-05-31 03:09:00,72.5,66.0,29.88,West,276,5.4,5.4,76,0.00,,,-99.99,wx200d/1.3,2013-05-31 07:09:00,
2013-05-31 03:14:00,72.3,64.0,29.88,West,268,4.9,5.4,76,0.00,,,-99.99,wx200d/1.3,2013-05-31 07:14:00,
2013-05-31 03:19:00,72.3,64.0,29.88,West,275,4.0,4.9,77,0.00,,,-99.99,wx200d/1.3,2013-05-31 07:19:00,
2013-05-31 03:24:00,72.1,64.0,29.88,West,267,4.5,5.4,77,0.00,,,-99.99,wx200d/1.3,2013-05-31 07:24:00,
2013-05-31 03:29:00,72.1,64.0,29.88,WNW,286,4.0,4.9,77,0.00,,,-99.99,wx200d/1.3,2013-05-31 07:29:00,
2013-05-31 03:34:00,72.0,64.0,29.88,WSW,256,4.9,4.9,77,0.00,,,-99.99,wx200d/1.3,2013-05-31 07:34:00,
2013-05-31 03:39:00,71.8,64.0,29.88,West,264,4.5,4.5,78,0.00,,,-99.99,wx200d/1.3,2013-05-31 07:39:00,
2013-05-31 03:45:00,71.6,64.0,29.88,West,266,4.5,5.8,78,0.00,,,-99.99,wx200d/1.3,2013-05-31 07:45:00,
2013-05-31 03:50:00,71.4,64.0,29.88,West,264,4.0,6.3,79,0.00,,,-99.99,wx200d/1.3,2013-05-31 07:50:00,
2013-05-31 03:55:00,71.2,64.0,29.88,NW,308,4.5,4.9,79,0.00,,,-99.99,wx200d/1.3,2013-05-31 07:55:00,
2013-05-31 04:00:00,71.2,64.0,29.88,WSW,257,4.5,4.5,79,0.00,,,-99.99,wx200d/1.3,2013-05-31 08:00:00,
2013-05-31 04:05:00,71.2,64.0,29.88,West,267,4.9,4.9,79,0.00,,,-99.99,wx200d/1.3,2013-05-31 08:05:00,
2013-05-31 04:10:00,71.2,64.0,29.88,West,274,4.5,4.5,79,0.00,,,-99.99,wx200d/1.3,2013-05-31 08:10:00,
2013-05-31 04:16:00,71.1,64.0,29.88,West,280,4.5,4.5,79,0.00,,,-99.99,wx200d/1.3,2013-05-31 08:16:00,
2013-05-31 04:21:00,70.9,64.0,29.88,WNW,283,4.9,4.9,79,0.00,,,-99.99,wx200d/1.3,2013-05-31 08:21:00,
2013-05-31 04:26:00,70.9,64.0,29.88,West,272,4.5,4.5,79,0.00,,,-99.99,wx200d/1.3,2013-05-31 08:26:00,
2013-05-31 04:31:00,70.7,64.0,29.88,WSW,243,4.0,4.0,80,0.00,,,-99.99,wx200d/1.3,2013-05-31 08:31:00,
2013-05-31 04:36:00,70.7,64.0,29.88,West,266,4.5,4.5,80,0.00,,,-99.99,wx200d/1.3,2013-05-31 08:36:00,
2013-05-31 04:41:00,70.7,64.0,29.88,West,264,4.5,4.5,80,0.00,,,-99.99,wx200d/1.3,2013-05-31 08:41:00,
2013-05-31 04:46:00,70.5,63.0,29.88,West,270,4.0,4.5,80,0.00,,,-99.99,wx200d/1.3,2013-05-31 08:46:00,
2013-05-31 04:51:00,70.5,63.0,29.88,West,262,4.5,4.5,80,0.00,,,-99.99,wx200d/1.3,2013-05-31 08:51:00,
2013-05-31 04:56:00,70.5,63.0,29.88,WSW,251,4.5,4.5,80,0.00,,,-99.99,wx200d/1.3,2013-05-31 08:56:00,
2013-05-31 05:01:00,70.2,64.0,29.88,West,275,5.4,6.3,81,0.00,,,-99.99,wx200d/1.3,2013-05-31 09:01:00,
2013-05-31 05:06:00,70.2,63.0,29.88,West,275,4.5,5.8,80,0.00,,,-99.99,wx200d/1.3,2013-05-31 09:06:00,
2013-05-31 05:11:00,70.2,64.0,29.88,West,275,4.9,4.9,81,0.00,,,-99.99,wx200d/1.3,2013-05-31 09:11:00,
2013-05-31 05:16:00,70.0,64.0,29.88,SW,227,4.5,4.5,81,0.00,,,-99.99,wx200d/1.3,2013-05-31 09:16:00,
2013-05-31 05:21:00,70.2,64.0,29.88,West,269,4.9,5.4,81,0.00,,,-99.99,wx200d/1.3,2013-05-31 09:21:00,
2013-05-31 05:26:00,70.0,64.0,29.88,West,280,4.9,4.9,81,0.00,,,-99.99,wx200d/1.3,2013-05-31 09:26:00,
2013-05-31 05:31:00,70.2,63.0,29.88,West,275,4.5,4.9,80,0.00,,,-99.99,wx200d/1.3,2013-05-31 09:31:00,
2013-05-31 05:36:00,70.0,64.0,29.88,WSW,253,5.4,5.4,81,0.00,,,-99.99,wx200d/1.3,2013-05-31 09:36:00,
2013-05-31 05:41:00,70.2,64.0,29.88,West,259,5.4,5.4,81,0.00,,,-99.99,wx200d/1.3,2013-05-31 09:41:00,
2013-05-31 05:46:00,70.3,63.0,29.88,WSW,257,4.9,4.9,80,0.00,,,-99.99,wx200d/1.3,2013-05-31 09:46:00,
2013-05-31 05:51:00,70.3,63.0,29.88,West,269,4.0,4.9,79,0.00,,,-99.99,wx200d/1.3,2013-05-31 09:51:00,
2013-05-31 05:56:00,70.7,64.0,29.88,West,280,4.0,4.0,78,0.00,,,-99.99,wx200d/1.3,2013-05-31 09:56:00,
2013-05-31 06:01:00,70.9,64.0,29.88,WNW,289,4.5,4.5,78,0.00,,,-99.99,wx200d/1.3,2013-05-31 10:01:00,
2013-05-31 06:06:00,71.6,64.0,29.88,WSW,248,3.6,4.9,77,0.00,,,-99.99,wx200d/1.3,2013-05-31 10:06:00,
2013-05-31 06:11:00,71.4,63.0,29.88,WNW,297,4.0,4.0,75,0.00,,,-99.99,wx200d/1.3,2013-05-31 10:11:00,
2013-05-31 06:16:00,72.0,63.0,29.88,WSW,242,4.5,4.5,74,0.00,,,-99.99,wx200d/1.3,2013-05-31 10:16:00,
2013-05-31 06:21:00,72.5,64.0,29.91,WSW,249,4.0,4.0,72,0.00,,,-99.99,wx200d/1.3,2013-05-31 10:21:00,
2013-05-31 06:26:00,73.0,63.0,29.91,West,264,4.0,4.5,70,0.00,,,-99.99,wx200d/1.3,2013-05-31 10:26:00,
2013-05-31 06:31:00,73.2,63.0,29.91,West,276,4.5,4.5,68,0.00,,,-99.99,wx200d/1.3,2013-05-31 10:31:00,
2013-05-31 06:36:00,73.6,63.0,29.91,West,266,4.9,4.9,68,0.00,,,-99.99,wx200d/1.3,2013-05-31 10:36:00,
2013-05-31 06:41:00,73.6,63.0,29.91,West,281,5.4,5.4,67,0.00,,,-99.99,wx200d/1.3,2013-05-31 10:41:00,
2013-05-31 06:46:00,74.3,63.0,29.91,WNW,297,4.9,4.9,66,0.00,,,-99.99,wx200d/1.3,2013-05-31 10:46:00,
2013-05-31 06:51:00,74.1,61.0,29.91,West,276,4.5,6.3,65,0.00,,,-99.99,wx200d/1.3,2013-05-31 10:51:00,
2013-05-31 06:56:00,74.5,63.0,29.91,West,273,5.8,5.8,64,0.00,,,-99.99,wx200d/1.3,2013-05-31 10:56:00,
2013-05-31 07:01:00,75.4,63.0,29.91,WSW,246,3.6,4.0,63,0.00,,,-99.99,wx200d/1.3,2013-05-31 11:01:00,
2013-05-31 07:06:00,76.3,63.0,29.91,WNW,299,3.6,3.6,60,0.00,,,-99.99,wx200d/1.3,2013-05-31 11:06:00,
2013-05-31 07:11:00,77.5,61.0,29.91,West,277,3.6,3.6,58,0.00,,,-99.99,wx200d/1.3,2013-05-31 11:11:00,
2013-05-31 07:16:00,79.2,61.0,29.91,West,270,2.7,0.0,53,0.00,,,-99.99,wx200d/1.3,2013-05-31 11:16:00,
2013-05-31 07:21:00,80.2,59.0,29.91,West,277,0.0,0.0,49,0.00,,,-99.99,wx200d/1.3,2013-05-31 11:21:00,
2013-05-31 07:26:00,81.0,55.0,29.91,West,269,3.6,0.0,41,0.00,,,-99.99,wx200d/1.3,2013-05-31 11:26:00,
2013-05-31 07:31:00,81.3,54.0,29.91,West,280,3.6,4.9,38,0.00,,,-99.99,wx200d/1.3,2013-05-31 11:31:00,
2013-05-31 07:36:00,81.9,52.0,29.91,West,275,3.6,4.0,35,0.00,,,-99.99,wx200d/1.3,2013-05-31 11:36:00,
2013-05-31 07:41:00,81.3,52.0,29.91,WSW,242,5.4,5.8,36,0.00,,,-99.99,wx200d/1.3,2013-05-31 11:41:00,
2013-05-31 07:46:00,80.8,54.0,29.91,West,280,4.5,4.5,39,0.00,,,-99.99,wx200d/1.3,2013-05-31 11:46:00,
2013-05-31 07:51:00,81.7,54.0,29.91,West,273,4.0,4.0,38,0.00,,,-99.99,wx200d/1.3,2013-05-31 11:51:00,
2013-05-31 07:56:00,82.4,52.0,29.91,WNW,298,3.6,3.6,34,0.00,,,-99.99,wx200d/1.3,2013-05-31 11:56:00,
2013-05-31 08:01:00,84.0,50.0,29.91,WSW,240,4.0,4.0,31,0.00,,,-99.99,wx200d/1.3,2013-05-31 12:01:00,
2013-05-31 08:06:00,84.9,48.0,29.91,WNW,291,4.0,4.0,29,0.00,,,-99.99,wx200d/1.3,2013-05-31 12:06:00,
2013-05-31 08:11:00,85.1,50.0,29.91,NW,311,4.5,4.5,28,0.00,,,-99.99,wx200d/1.3,2013-05-31 12:11:00,
2013-05-31 08:16:00,85.6,48.0,29.91,WSW,254,4.0,4.5,27,0.00,,,-99.99,wx200d/1.3,2013-05-31 12:16:00,
2013-05-31 08:21:00,86.4,46.0,29.91,WNW,291,4.0,4.0,26,0.00,,,-99.99,wx200d/1.3,2013-05-31 12:21:00,
2013-05-31 08:26:00,85.8,46.0,29.91,WSW,250,6.3,6.3,26,0.00,,,-99.99,wx200d/1.3,2013-05-31 12:26:00,
2013-05-31 08:31:00,85.6,48.0,29.91,WSW,239,4.9,4.9,27,0.00,,,-99.99,wx200d/1.3,2013-05-31 12:31:00,
2013-05-31 08:36:00,87.4,50.0,29.91,West,266,3.1,0.0,27,0.00,,,-99.99,wx200d/1.3,2013-05-31 12:36:00,
2013-05-31 08:41:00,87.1,45.0,29.91,West,276,4.9,6.3,23,0.00,,,-99.99,wx200d/1.3,2013-05-31 12:41:00,
2013-05-31 08:46:00,87.1,48.0,29.91,West,275,2.7,4.9,25,0.00,,,-99.99,wx200d/1.3,2013-05-31 12:46:00,
2013-05-31 08:51:00,87.6,46.0,29.91,WSW,257,3.6,3.6,24,0.00,,,-99.99,wx200d/1.3,2013-05-31 12:51:00,
2013-05-31 08:56:00,88.2,45.0,29.91,West,262,3.6,5.4,23,0.00,,,-99.99,wx200d/1.3,2013-05-31 12:56:00,
2013-05-31 09:01:00,89.2,46.0,29.91,West,279,3.6,3.6,22,0.00,,,-99.99,wx200d/1.3,2013-05-31 13:01:00,
2013-05-31 09:06:00,89.6,46.0,29.91,West,274,3.1,3.1,22,0.00,,,-99.99,wx200d/1.3,2013-05-31 13:06:00,
2013-05-31 09:11:00,91.2,46.0,29.91,NW,319,3.1,3.6,21,0.00,,,-99.99,wx200d/1.3,2013-05-31 13:11:00,
2013-05-31 09:16:00,92.5,43.0,29.91,West,278,4.9,4.9,18,0.00,,,-99.99,wx200d/1.3,2013-05-31 13:16:00,
2013-05-31 09:21:00,93.2,43.0,29.91,NNW,341,3.6,6.3,18,0.00,,,-99.99,wx200d/1.3,2013-05-31 13:21:00,
2013-05-31 09:26:00,93.0,43.0,29.91,WNW,296,4.5,4.5,18,0.00,,,-99.99,wx200d/1.3,2013-05-31 13:26:00,
2013-05-31 09:31:00,93.9,43.0,29.91,NNW,337,2.7,4.0,18,0.00,,,-99.99,wx200d/1.3,2013-05-31 13:31:00,
2013-05-31 09:36:00,93.0,43.0,29.88,North,351,4.9,4.9,18,0.00,,,-99.99,wx200d/1.3,2013-05-31 13:36:00,
2013-05-31 09:41:00,93.9,43.0,29.88,WNW,295,4.5,4.5,18,0.00,,,-99.99,wx200d/1.3,2013-05-31 13:41:00,
2013-05-31 09:46:00,94.6,43.0,29.88,WNW,286,6.3,6.3,17,0.00,,,-99.99,wx200d/1.3,2013-05-31 13:46:00,
2013-05-31 09:51:00,93.2,43.0,29.88,West,263,4.5,5.8,17,0.00,,,-99.99,wx200d/1.3,2013-05-31 13:51:00,
2013-05-31 09:56:00,91.9,43.0,29.88,WSW,250,5.8,5.8,18,0.00,,,-99.99,wx200d/1.3,2013-05-31 13:56:00,
2013-05-31 10:01:00,92.8,43.0,29.88,SW,228,3.1,4.0,18,0.00,,,-99.99,wx200d/1.3,2013-05-31 14:01:00,
2013-05-31 10:06:00,92.1,43.0,29.88,West,278,4.5,5.4,18,0.00,,,-99.99,wx200d/1.3,2013-05-31 14:06:00,
2013-05-31 10:11:00,94.3,43.0,29.88,West,266,3.1,7.4,17,0.00,,,-99.99,wx200d/1.3,2013-05-31 14:11:00,
2013-05-31 10:16:00,94.3,43.0,29.88,WSW,252,5.8,6.7,17,0.00,,,-99.99,wx200d/1.3,2013-05-31 14:16:00,
2013-05-31 10:21:00,93.7,43.0,29.88,WNW,297,4.5,5.4,17,0.00,,,-99.99,wx200d/1.3,2013-05-31 14:21:00,
2013-05-31 10:26:00,93.0,43.0,29.88,West,267,6.3,6.3,17,0.00,,,-99.99,wx200d/1.3,2013-05-31 14:26:00,
2013-05-31 10:31:00,94.5,43.0,29.88,WNW,286,5.4,7.4,17,0.00,,,-99.99,wx200d/1.3,2013-05-31 14:31:00,
2013-05-31 10:36:00,93.9,43.0,29.88,NW,308,6.3,6.3,17,0.00,,,-99.99,wx200d/1.3,2013-05-31 14:36:00,
2013-05-31 10:41:00,94.8,41.0,29.88,NNE,29,4.9,4.9,16,0.00,,,-99.99,wx200d/1.3,2013-05-31 14:41:00,
2013-05-31 10:46:00,95.4,41.0,29.88,WSW,254,5.4,5.4,16,0.00,,,-99.99,wx200d/1.3,2013-05-31 14:46:00,
2013-05-31 10:51:00,94.5,41.0,29.88,NW,309,6.3,7.4,16,0.00,,,-99.99,wx200d/1.3,2013-05-31 14:51:00,
2013-05-31 10:56:00,93.6,41.0,29.88,NW,305,5.8,7.4,16,0.00,,,-99.99,wx200d/1.3,2013-05-31 14:56:00,
2013-05-31 11:01:00,93.2,41.0,29.88,WSW,249,9.2,9.2,16,0.00,,,-99.99,wx200d/1.3,2013-05-31 15:01:00,
2013-05-31 11:06:00,93.6,41.0,29.88,WSW,253,6.3,8.3,16,0.00,,,-99.99,wx200d/1.3,2013-05-31 15:06:00,
2013-05-31 11:11:00,94.6,39.0,29.88,West,278,5.4,7.8,14,0.00,,,-99.99,wx200d/1.3,2013-05-31 15:11:00,
2013-05-31 11:16:00,94.8,32.0,29.88,WNW,283,5.8,6.3,11,0.00,,,-99.99,wx200d/1.3,2013-05-31 15:16:00,
2013-05-31 11:21:00,95.4,39.0,29.88,NNE,17,5.4,5.8,14,0.00,,,-99.99,wx200d/1.3,2013-05-31 15:21:00,
2013-05-31 11:26:00,95.4,39.0,29.88,WSW,240,5.4,6.3,14,0.00,,,-99.99,wx200d/1.3,2013-05-31 15:26:00,
2013-05-31 11:31:00,95.4,32.0,29.88,NW,311,4.5,0.0,11,0.00,,,-99.99,wx200d/1.3,2013-05-31 15:31:00,
2013-05-31 11:36:00,96.3,34.0,29.85,NNW,328,5.8,9.2,11,0.00,,,-99.99,wx200d/1.3,2013-05-31 15:36:00,
2013-05-31 11:41:00,95.9,34.0,29.85,West,259,5.4,5.4,11,0.00,,,-99.99,wx200d/1.3,2013-05-31 15:41:00,
2013-05-31 11:46:00,95.9,34.0,29.85,WSW,256,3.1,4.0,11,0.00,,,-99.99,wx200d/1.3,2013-05-31 15:46:00,
2013-05-31 11:51:00,96.4,34.0,29.85,West,273,4.5,4.5,11,0.00,,,-99.99,wx200d/1.3,2013-05-31 15:51:00,
2013-05-31 11:56:00,97.0,34.0,29.85,WNW,303,6.3,6.9,11,0.00,,,-99.99,wx200d/1.3,2013-05-31 15:56:00,
2013-05-31 12:01:00,96.1,34.0,29.85,SSW,198,6.9,7.8,11,0.00,,,-99.99,wx200d/1.3,2013-05-31 16:01:00,
2013-05-31 12:06:00,95.5,32.0,29.85,South,175,4.5,9.2,11,0.00,,,-99.99,wx200d/1.3,2013-05-31 16:06:00,
2013-05-31 12:12:00,95.9,37.0,29.85,West,264,4.0,4.0,13,0.00,,,-99.99,wx200d/1.3,2013-05-31 16:12:00,
2013-05-31 12:17:00,97.2,34.0,29.85,WNW,295,4.9,5.4,11,0.00,,,-99.99,wx200d/1.3,2013-05-31 16:17:00,
2013-05-31 12:22:00,97.7,32.0,29.85,WSW,257,5.4,6.7,10,0.00,,,-99.99,wx200d/1.3,2013-05-31 16:22:00,
2013-05-31 12:27:00,98.4,32.0,29.85,NW,304,7.4,7.4,10,0.00,,,-99.99,wx200d/1.3,2013-05-31 16:27:00,
2013-05-31 12:32:00,97.2,34.0,29.85,WNW,291,6.7,8.3,11,0.00,,,-99.99,wx200d/1.3,2013-05-31 16:32:00,
2013-05-31 12:37:00,96.6,34.0,29.85,North,351,6.7,6.7,11,0.00,,,-99.99,wx200d/1.3,2013-05-31 16:37:00,
2013-05-31 12:42:00,97.0,34.0,29.85,WSW,254,4.0,4.0,11,0.00,,,-99.99,wx200d/1.3,2013-05-31 16:42:00,
2013-05-31 12:47:00,97.9,32.0,29.85,West,277,5.8,5.8,10,0.00,,,-99.99,wx200d/1.3,2013-05-31 16:47:00,
2013-05-31 12:52:00,98.2,32.0,29.85,NNE,16,3.6,0.0,10,0.00,,,-99.99,wx200d/1.3,2013-05-31 16:52:00,
2013-05-31 12:57:00,97.5,34.0,29.85,NW,304,8.7,8.7,11,0.00,,,-99.99,wx200d/1.3,2013-05-31 16:57:00,
2013-05-31 13:02:00,98.6,32.0,29.85,West,281,6.3,9.6,10,0.00,,,-99.99,wx200d/1.3,2013-05-31 17:02:00,
2013-05-31 13:07:00,98.4,32.0,29.83,West,272,7.4,7.8,10,0.00,,,-99.99,wx200d/1.3,2013-05-31 17:07:00,
2013-05-31 13:12:00,98.6,32.0,29.83,West,270,6.7,6.7,10,0.00,,,-99.99,wx200d/1.3,2013-05-31 17:12:00,
2013-05-31 13:17:00,97.0,32.0,29.83,WNW,289,6.9,6.9,10,0.00,,,-99.99,wx200d/1.3,2013-05-31 17:17:00,
2013-05-31 13:22:00,97.0,32.0,29.83,West,277,5.8,5.8,10,0.00,,,-99.99,wx200d/1.3,2013-05-31 17:22:00,
2013-05-31 13:27:00,97.7,32.0,29.83,WNW,287,5.4,5.8,10,0.00,,,-99.99,wx200d/1.3,2013-05-31 17:27:00,
2013-05-31 13:32:00,97.9,32.0,29.83,West,279,5.8,5.8,10,0.00,,,-99.99,wx200d/1.3,2013-05-31 17:32:00,
2013-05-31 13:37:00,97.9,32.0,29.83,NW,304,6.7,8.3,10,0.00,,,-99.99,wx200d/1.3,2013-05-31 17:37:00,
2013-05-31 13:42:00,98.1,32.0,29.83,NNW,327,3.6,4.0,10,0.00,,,-99.99,wx200d/1.3,2013-05-31 17:42:00,
2013-05-31 13:47:00,98.1,32.0,29.83,West,274,6.9,8.3,10,0.00,,,-99.99,wx200d/1.3,2013-05-31 17:47:00,
2013-05-31 13:52:00,97.2,32.0,29.83,WNW,293,6.3,6.3,10,0.00,,,-99.99,wx200d/1.3,2013-05-31 17:52:00,
2013-05-31 13:57:00,97.7,32.0,29.83,West,261,5.8,10.1,10,0.00,,,-99.99,wx200d/1.3,2013-05-31 17:57:00,
2013-05-31 14:02:00,98.4,32.0,29.83,NW,309,6.3,6.3,10,0.00,,,-99.99,wx200d/1.3,2013-05-31 18:02:00,
2013-05-31 14:07:00,98.4,32.0,29.83,NNW,337,4.9,5.8,10,0.00,,,-99.99,wx200d/1.3,2013-05-31 18:07:00,
2013-05-31 14:12:00,98.2,32.0,29.83,NW,310,8.3,9.6,10,0.00,,,-99.99,wx200d/1.3,2013-05-31 18:12:00,
2013-05-31 14:17:00,98.4,32.0,29.83,West,268,6.7,7.8,10,0.00,,,-99.99,wx200d/1.3,2013-05-31 18:17:00,
2013-05-31 14:22:00,99.0,32.0,29.83,North,356,7.8,7.8,10,0.00,,,-99.99,wx200d/1.3,2013-05-31 18:22:00,
2013-05-31 14:27:00,99.1,32.0,29.83,WNW,299,5.4,5.8,10,0.00,,,-99.99,wx200d/1.3,2013-05-31 18:27:00,
2013-05-31 14:32:00,98.8,32.0,29.83,SW,235,6.3,6.9,10,0.00,,,-99.99,wx200d/1.3,2013-05-31 18:32:00,
2013-05-31 14:37:00,98.6,32.0,29.83,WNW,296,9.2,9.2,10,0.00,,,-99.99,wx200d/1.3,2013-05-31 18:37:00,
2013-05-31 14:42:00,99.0,32.0,29.83,NNW,345,7.8,7.8,10,0.00,,,-99.99,wx200d/1.3,2013-05-31 18:42:00,
2013-05-31 14:47:00,99.1,32.0,29.83,NW,306,6.3,6.3,10,0.00,,,-99.99,wx200d/1.3,2013-05-31 18:47:00,
2013-05-31 14:52:00,99.0,32.0,29.80,West,276,6.9,6.9,10,0.00,,,-99.99,wx200d/1.3,2013-05-31 18:52:00,
2013-05-31 14:57:00,97.9,32.0,29.80,West,259,7.4,7.4,10,0.00,,,-99.99,wx200d/1.3,2013-05-31 18:57:00,
2013-05-31 15:02:00,97.9,32.0,29.80,West,264,6.3,6.3,10,0.00,,,-99.99,wx200d/1.3,2013-05-31 19:02:00,
2013-05-31 15:07:00,98.8,32.0,29.80,WSW,251,6.7,8.7,10,0.00,,,-99.99,wx200d/1.3,2013-05-31 19:07:00,
2013-05-31 15:12:00,98.2,32.0,29.80,West,273,6.9,7.4,10,0.00,,,-99.99,wx200d/1.3,2013-05-31 19:12:00,
2013-05-31 15:17:00,98.1,32.0,29.80,WSW,249,5.4,7.4,10,0.00,,,-99.99,wx200d/1.3,2013-05-31 19:17:00,
2013-05-31 15:22:00,98.2,32.0,29.80,West,260,8.7,8.7,10,0.00,,,-99.99,wx200d/1.3,2013-05-31 19:22:00,
2013-05-31 15:27:00,97.3,32.0,29.80,WNW,282,9.6,9.6,10,0.00,,,-99.99,wx200d/1.3,2013-05-31 19:27:00,
2013-05-31 15:32:00,97.9,32.0,29.80,West,269,7.4,8.7,10,0.00,,,-99.99,wx200d/1.3,2013-05-31 19:32:00,
2013-05-31 15:37:00,97.9,32.0,29.80,NW,322,6.7,6.7,10,0.00,,,-99.99,wx200d/1.3,2013-05-31 19:37:00,
2013-05-31 15:42:00,96.4,32.0,29.80,SW,221,6.9,6.9,10,0.00,,,-99.99,wx200d/1.3,2013-05-31 19:42:00,
2013-05-31 15:47:00,96.1,32.0,29.80,WSW,248,10.5,10.5,10,0.00,,,-99.99,wx200d/1.3,2013-05-31 19:47:00,
2013-05-31 15:52:00,96.3,32.0,29.80,West,263,6.7,6.7,10,0.00,,,-99.99,wx200d/1.3,2013-05-31 19:52:00,
2013-05-31 15:57:00,95.9,32.0,29.80,WSW,252,6.7,6.9,10,0.00,,,-99.99,wx200d/1.3,2013-05-31 19:57:00,
2013-05-31 16:02:00,95.9,32.0,29.80,West,267,11.0,11.0,10,0.00,,,-99.99,wx200d/1.3,2013-05-31 20:02:00,
2013-05-31 16:07:00,95.7,32.0,29.80,WNW,284,7.4,7.8,10,0.00,,,-99.99,wx200d/1.3,2013-05-31 20:07:00,
2013-05-31 16:12:00,95.7,32.0,29.80,SE,134,6.9,12.1,10,0.00,,,-99.99,wx200d/1.3,2013-05-31 20:12:00,
2013-05-31 16:17:00,96.4,32.0,29.80,West,266,8.7,8.7,10,0.00,,,-99.99,wx200d/1.3,2013-05-31 20:17:00,
2013-05-31 16:22:00,97.0,32.0,29.80,West,262,6.7,6.7,10,0.00,,,-99.99,wx200d/1.3,2013-05-31 20:22:00,
2013-05-31 16:27:00,96.3,32.0,29.80,WNW,289,9.2,9.2,10,0.00,,,-99.99,wx200d/1.3,2013-05-31 20:27:00,
2013-05-31 16:32:00,96.6,32.0,29.80,NNW,328,6.7,6.7,10,0.00,,,-99.99,wx200d/1.3,2013-05-31 20:32:00,
2013-05-31 16:37:00,96.1,32.0,29.80,NW,317,6.9,6.9,10,0.00,,,-99.99,wx200d/1.3,2013-05-31 20:37:00,
2013-05-31 16:42:00,96.3,32.0,29.80,NW,309,7.8,8.3,10,0.00,,,-99.99,wx200d/1.3,2013-05-31 20:42:00,
2013-05-31 16:47:00,96.6,32.0,29.80,West,281,4.9,7.4,10,0.00,,,-99.99,wx200d/1.3,2013-05-31 20:47:00,
2013-05-31 16:52:00,97.0,32.0,29.77,WNW,298,7.4,7.4,10,0.00,,,-99.99,wx200d/1.3,2013-05-31 20:52:00,
2013-05-31 16:57:00,97.3,32.0,29.77,West,274,5.4,5.4,10,0.00,,,-99.99,wx200d/1.3,2013-05-31 20:57:00,
2013-05-31 17:02:00,97.0,32.0,29.77,NW,318,6.9,6.9,10,0.00,,,-99.99,wx200d/1.3,2013-05-31 21:02:00,
2013-05-31 17:07:00,96.4,32.0,29.77,WNW,294,8.7,10.1,10,0.00,,,-99.99,wx200d/1.3,2013-05-31 21:07:00,
2013-05-31 17:12:00,95.7,32.0,29.77,West,259,8.7,8.7,10,0.00,,,-99.99,wx200d/1.3,2013-05-31 21:12:00,
2013-05-31 17:17:00,96.4,32.0,29.77,West,268,6.3,6.3,10,0.00,,,-99.99,wx200d/1.3,2013-05-31 21:17:00,
2013-05-31 17:22:00,96.6,32.0,29.77,North,351,6.3,8.3,10,0.00,,,-99.99,wx200d/1.3,2013-05-31 21:22:00,
2013-05-31 17:27:00,95.5,32.0,29.77,WSW,247,9.2,9.2,10,0.00,,,-99.99,wx200d/1.3,2013-05-31 21:27:00,
2013-05-31 17:32:00,95.4,32.0,29.77,West,273,8.7,8.7,10,0.00,,,-99.99,wx200d/1.3,2013-05-31 21:32:00,
2013-05-31 17:37:00,95.4,32.0,29.77,South,188,4.5,4.5,10,0.00,,,-99.99,wx200d/1.3,2013-05-31 21:37:00,
2013-05-31 17:42:00,95.9,32.0,29.77,NW,326,7.4,7.4,10,0.00,,,-99.99,wx200d/1.3,2013-05-31 21:42:00,
2013-05-31 17:47:00,96.3,32.0,29.77,WNW,291,6.3,6.3,10,0.00,,,-99.99,wx200d/1.3,2013-05-31 21:47:00,
2013-05-31 17:52:00,96.1,32.0,29.77,WSW,258,6.3,8.3,10,0.00,,,-99.99,wx200d/1.3,2013-05-31 21:52:00,
2013-05-31 17:57:00,95.9,32.0,29.77,West,268,7.4,7.4,10,0.00,,,-99.99,wx200d/1.3,2013-05-31 21:57:00,
2013-05-31 18:02:00,95.4,32.0,29.77,SW,218,7.8,7.8,10,0.00,,,-99.99,wx200d/1.3,2013-05-31 22:02:00,
2013-05-31 18:07:00,94.6,32.0,29.77,SW,221,9.6,11.6,10,0.00,,,-99.99,wx200d/1.3,2013-05-31 22:07:00,
2013-05-31 18:12:00,93.7,32.0,29.77,West,261,8.7,12.5,11,0.00,,,-99.99,wx200d/1.3,2013-05-31 22:12:00,
2013-05-31 18:17:00,93.6,32.0,29.77,WSW,249,9.6,9.6,11,0.00,,,-99.99,wx200d/1.3,2013-05-31 22:17:00,
2013-05-31 18:22:00,93.6,32.0,29.77,SW,224,6.9,9.6,11,0.00,,,-99.99,wx200d/1.3,2013-05-31 22:22:00,
2013-05-31 18:27:00,93.4,32.0,29.77,NW,318,7.4,8.3,11,0.00,,,-99.99,wx200d/1.3,2013-05-31 22:27:00,
2013-05-31 18:32:00,92.8,32.0,29.77,SW,227,6.7,9.6,11,0.00,,,-99.99,wx200d/1.3,2013-05-31 22:32:00,
2013-05-31 18:37:00,92.7,37.0,29.74,WSW,251,8.3,10.5,14,0.00,,,-99.99,wx200d/1.3,2013-05-31 22:37:00,
2013-05-31 18:42:00,92.7,37.0,29.74,West,263,8.7,8.7,14,0.00,,,-99.99,wx200d/1.3,2013-05-31 22:42:00,
2013-05-31 18:47:00,92.5,37.0,29.74,WSW,238,8.3,8.3,14,0.00,,,-99.99,wx200d/1.3,2013-05-31 22:47:00,
2013-05-31 18:52:00,92.3,37.0,29.74,West,280,5.4,5.4,14,0.00,,,-99.99,wx200d/1.3,2013-05-31 22:52:00,
2013-05-31 18:57:00,91.9,36.0,29.74,SSW,211,6.7,9.2,14,0.00,,,-99.99,wx200d/1.3,2013-05-31 22:57:00,
2013-05-31 19:02:00,91.8,41.0,29.74,West,277,8.7,8.7,17,0.00,,,-99.99,wx200d/1.3,2013-05-31 23:02:00,
2013-05-31 19:07:00,91.4,41.0,29.74,West,264,11.0,11.0,17,0.00,,,-99.99,wx200d/1.3,2013-05-31 23:07:00,
2013-05-31 19:12:00,91.0,41.0,29.74,West,264,7.4,9.6,17,0.00,,,-99.99,wx200d/1.3,2013-05-31 23:12:00,
2013-05-31 19:17:00,90.7,43.0,29.74,West,278,7.8,8.3,18,0.00,,,-99.99,wx200d/1.3,2013-05-31 23:17:00,
2013-05-31 19:22:00,90.1,41.0,29.74,West,265,9.6,11.2,18,0.00,,,-99.99,wx200d/1.3,2013-05-31 23:22:00,
2013-05-31 19:27:00,89.6,43.0,29.74,WNW,287,11.2,11.2,19,0.00,,,-99.99,wx200d/1.3,2013-05-31 23:27:00,
2013-05-31 19:32:00,89.4,43.0,29.74,West,262,10.1,10.1,19,0.00,,,-99.99,wx200d/1.3,2013-05-31 23:32:00,
2013-05-31 19:37:00,89.1,43.0,29.77,WNW,283,11.0,11.0,19,0.00,,,-99.99,wx200d/1.3,2013-05-31 23:37:00,
2013-05-31 19:42:00,88.9,43.0,29.77,West,271,11.0,11.0,19,0.00,,,-99.99,wx200d/1.3,2013-05-31 23:42:00,
2013-05-31 19:47:00,88.7,43.0,29.77,WNW,293,8.3,8.7,20,0.00,,,-99.99,wx200d/1.3,2013-05-31 23:47:00,
2013-05-31 19:52:00,88.2,41.0,29.77,West,266,8.7,10.1,20,0.00,,,-99.99,wx200d/1.3,2013-05-31 23:52:00,
2013-05-31 19:57:00,88.0,41.0,29.77,WNW,293,7.8,7.8,20,0.00,,,-99.99,wx200d/1.3,2013-05-31 23:57:00,
2013-05-31 20:02:00,87.6,41.0,29.77,WSW,252,7.8,9.2,20,0.00,,,-99.99,wx200d/1.3,2013-06-01 00:02:00,
2013-05-31 20:07:00,87.4,43.0,29.77,West,280,7.8,7.8,21,0.00,,,-99.99,wx200d/1.3,2013-06-01 00:07:00,
2013-05-31 20:12:00,87.1,43.0,29.77,WSW,251,8.3,8.3,21,0.00,,,-99.99,wx200d/1.3,2013-06-01 00:12:00,
2013-05-31 20:17:00,87.1,43.0,29.77,NW,312,8.7,8.7,21,0.00,,,-99.99,wx200d/1.3,2013-06-01 00:17:00,
2013-05-31 20:22:00,86.7,43.0,29.77,West,272,6.9,6.9,22,0.00,,,-99.99,wx200d/1.3,2013-06-01 00:22:00,
2013-05-31 20:27:00,86.5,43.0,29.77,West,261,6.7,6.9,22,0.00,,,-99.99,wx200d/1.3,2013-06-01 00:27:00,
2013-05-31 20:32:00,86.2,45.0,29.77,WNW,289,9.6,9.6,23,0.00,,,-99.99,wx200d/1.3,2013-06-01 00:32:00,
2013-05-31 20:37:00,85.8,45.0,29.77,West,265,9.2,9.2,23,0.00,,,-99.99,wx200d/1.3,2013-06-01 00:37:00,
2013-05-31 20:42:00,85.8,45.0,29.77,WNW,285,8.7,8.7,24,0.00,,,-99.99,wx200d/1.3,2013-06-01 00:42:00,
2013-05-31 20:47:00,85.5,46.0,29.77,WNW,282,8.3,8.3,25,0.00,,,-99.99,wx200d/1.3,2013-06-01 00:47:00,
2013-05-31 20:52:00,85.3,46.0,29.77,SW,226,6.7,6.7,25,0.00,,,-99.99,wx200d/1.3,2013-06-01 00:52:00,
2013-05-31 20:57:00,85.1,48.0,29.77,West,276,6.9,6.9,27,0.00,,,-99.99,wx200d/1.3,2013-06-01 00:57:00,
2013-05-31 21:02:00,84.9,46.0,29.77,West,273,7.8,7.8,27,0.00,,,-99.99,wx200d/1.3,2013-06-01 01:02:00,
2013-05-31 21:07:00,84.7,48.0,29.77,WSW,251,6.9,6.9,28,0.00,,,-99.99,wx200d/1.3,2013-06-01 01:07:00,
2013-05-31 21:12:00,84.4,48.0,29.77,West,281,7.4,7.4,29,0.00,,,-99.99,wx200d/1.3,2013-06-01 01:12:00,
2013-05-31 21:17:00,84.4,48.0,29.77,WSW,257,5.4,8.7,29,0.00,,,-99.99,wx200d/1.3,2013-06-01 01:17:00,
2013-05-31 21:22:00,84.0,48.0,29.77,WNW,299,6.7,6.7,29,0.00,,,-99.99,wx200d/1.3,2013-06-01 01:22:00,
2013-05-31 21:27:00,83.8,50.0,29.77,West,275,7.4,7.4,30,0.00,,,-99.99,wx200d/1.3,2013-06-01 01:27:00,
2013-05-31 21:32:00,83.7,50.0,29.77,SW,228,7.4,8.3,30,0.00,,,-99.99,wx200d/1.3,2013-06-01 01:32:00,
2013-05-31 21:37:00,83.5,50.0,29.80,NW,305,7.8,7.8,31,0.00,,,-99.99,wx200d/1.3,2013-06-01 01:37:00,
2013-05-31 21:42:00,83.3,50.0,29.80,South,173,6.7,6.9,31,0.00,,,-99.99,wx200d/1.3,2013-06-01 01:42:00,
2013-05-31 21:47:00,83.1,50.0,29.80,WNW,284,6.3,6.9,32,0.00,,,-99.99,wx200d/1.3,2013-06-01 01:47:00,
2013-05-31 21:52:00,82.9,50.0,29.80,WNW,300,6.7,6.7,33,0.00,,,-99.99,wx200d/1.3,2013-06-01 01:52:00,
2013-05-31 21:57:00,82.8,50.0,29.80,West,260,7.4,9.6,33,0.00,,,-99.99,wx200d/1.3,2013-06-01 01:57:00,
2013-05-31 22:02:00,82.6,52.0,29.80,WNW,296,6.3,6.3,34,0.00,,,-99.99,wx200d/1.3,2013-06-01 02:02:00,
2013-05-31 22:07:00,82.4,52.0,29.80,West,281,5.8,9.6,34,0.00,,,-99.99,wx200d/1.3,2013-06-01 02:07:00,
2013-05-31 22:12:00,82.2,52.0,29.80,WSW,258,5.8,9.2,35,0.00,,,-99.99,wx200d/1.3,2013-06-01 02:12:00,
2013-05-31 22:17:00,82.0,52.0,29.80,SW,227,7.4,11.2,35,0.00,,,-99.99,wx200d/1.3,2013-06-01 02:17:00,
2013-05-31 22:22:00,81.7,54.0,29.80,West,276,8.7,8.7,37,0.00,,,-99.99,wx200d/1.3,2013-06-01 02:22:00,
2013-05-31 22:27:00,81.5,54.0,29.80,WSW,255,7.4,7.4,37,0.00,,,-99.99,wx200d/1.3,2013-06-01 02:27:00,
2013-05-31 22:32:00,81.3,54.0,29.80,WNW,303,6.9,9.2,38,0.00,,,-99.99,wx200d/1.3,2013-06-01 02:32:00,
2013-05-31 22:37:00,81.1,54.0,29.80,WNW,282,7.8,7.8,38,0.00,,,-99.99,wx200d/1.3,2013-06-01 02:37:00,
2013-05-31 22:42:00,81.0,54.0,29.80,WNW,299,7.4,7.4,38,0.00,,,-99.99,wx200d/1.3,2013-06-01 02:42:00,
2013-05-31 22:47:00,80.8,54.0,29.80,West,278,7.4,7.4,39,0.00,,,-99.99,wx200d/1.3,2013-06-01 02:47:00,
2013-05-31 22:52:00,80.6,54.0,29.80,NW,318,6.9,8.3,39,0.00,,,-99.99,wx200d/1.3,2013-06-01 02:52:00,
2013-05-31 22:58:00,80.4,54.0,29.80,WSW,248,6.9,7.8,39,0.00,,,-99.99,wx200d/1.3,2013-06-01 02:58:00,
2013-05-31 23:03:00,80.2,54.0,29.80,WNW,296,7.8,7.8,39,0.00,,,-99.99,wx200d/1.3,2013-06-01 03:03:00,
2013-05-31 23:08:00,80.2,54.0,29.80,WNW,302,8.7,8.7,39,0.00,,,-99.99,wx200d/1.3,2013-06-01 03:08:00,
2013-05-31 23:13:00,80.1,54.0,29.80,WSW,249,6.9,6.9,39,0.00,,,-99.99,wx200d/1.3,2013-06-01 03:13:00,
2013-05-31 23:18:00,80.1,54.0,29.80,West,273,6.3,6.7,39,0.00,,,-99.99,wx200d/1.3,2013-06-01 03:18:00,
2013-05-31 23:23:00,79.9,54.0,29.80,WNW,284,5.4,6.7,39,0.00,,,-99.99,wx200d/1.3,2013-06-01 03:23:00,
2013-05-31 23:28:00,79.7,54.0,29.80,WNW,296,6.3,6.3,39,0.00,,,-99.99,wx200d/1.3,2013-06-01 03:28:00,
2013-05-31 23:33:00,79.7,54.0,29.80,West,277,6.3,6.3,39,0.00,,,-99.99,wx200d/1.3,2013-06-01 03:33:00,
2013-05-31 23:38:00,79.5,52.0,29.80,WSW,241,5.8,5.8,39,0.00,,,-99.99,wx200d/1.3,2013-06-01 03:38:00,
2013-05-31 23:43:00,79.3,52.0,29.80,NW,306,5.8,5.8,38,0.00,,,-99.99,wx200d/1.3,2013-06-01 03:43:00,
2013-05-31 23:48:00,79.3,52.0,29.80,West,274,6.3,6.9,38,0.00,,,-99.99,wx200d/1.3,2013-06-01 03:48:00,
2013-05-31 23:53:00,79.2,50.0,29.80,WSW,251,5.8,6.3,37,0.00,,,-99.99,wx200d/1.3,2013-06-01 03:53:00,
2013-05-31 23:58:00,79.0,50.0,29.80,WNW,292,4.9,6.3,37,0.00,,,-99.99,wx200d/1.3,2013-06-01 03:58:00,